Retour au catalogue

FENGYUN 1C DEB

ActifSSO
NORAD 30574·DEBRIS·🇨🇳 China

Lancé May 10, 1999 depuis Taiyuan Satellite Launch Center

Loading…

Prochains Passages (prochaines 24 heures)

TLE

FraisSource: Space-Track

Époque: Sep 14, 2026, 10:01 UTC

1 30574U 99025ALQ 26257.41756648  .00001391  00000-0  11837-2 0  9993
2 30574  99.3289  61.1458 0215487 340.1120  19.1726 13.78954594975668

Suivez FENGYUN 1C DEB en temps réel avec AllMySat

Download on the App Store